Charlottetown, Prince Edward Island

1:04 AM ADT on August 21, 2017 (GMT -0300)
Charlottetown

Weather History for CYYG - May, 2015

Change the Weather History Date:

Sunday, May 24, 2015

  Actual Average Record
Temperature  
Mean Temperature 54 °F -  
Max Temperature 66 °F 65 °F 73 °F (2002)
Min Temperature 41 °F 47 °F 33 °F (2007)
Degree Days  
Heating Degree Days 12    
Growing Degree Days 4 (Base 50)    
Moisture  
Dew Point 37 °F    
Average Humidity 53    
Maximum Humidity 70    
Minimum Humidity 31    
Precipitation  
Precipitation 0.00 in 0.12 in - ()
Sea Level Pressure  
Sea Level Pressure 30.00 in    
Wind  
Wind Speed 11 mph ()    
Max Wind Speed 22 mph    
Max Gust Speed 34 mph    
Visibility 15.0 miles    
Events      
Averages and records for this station are not official NWS values.
T = Trace of Precipitation, MM = Missing Value Source: Averaged Metar Reports

Daily Weather History Graph

Daily Weather History Graph

Search for Another Location

Airport or City:

Trip Planner

Search our weather history database for the weather conditions in past years. The results will help you decide how hot, cold, wet, or windy it might be!

Date:

Astronomy

May. 24, 2015 Rise Set
Actual Time 5:30 AM ADT 8:48 PM ADT
Civil Twilight 4:53 AM ADT 9:25 PM ADT
Nautical Twilight 4:05 AM ADT 10:13 PM ADT
Astronomical Twilight 3:05 AM ADT 11:14 PM ADT
Moon 11:48 AM ADT (5/24) 1:05 AM ADT (5/24)
Length of Visible Light 16h 31m
Length of Day
15h 18m
Waxing Crescent, 40% of the Moon is Illuminated
May 24
Waxing Crescent
May 25
First Quarter
Jun 2
Full
Jun 9
Last Quarter
Jun 16
New

Hourly Weather History & Observations

Time (ADT) Temp. Windchill Dew Point Humidity Pressure Visibility Wind Dir Wind Speed Gust Speed Precip Events Conditions
12:00 AM 44.6 °F 39.2 °F 30.2 °F 57% 30.05 in 15.0 mi SW 10.4 mph - N/A   Scattered Clouds
1:00 AM 44.6 °F 39.7 °F 30.2 °F 57% 30.06 in 15.0 mi WSW 9.2 mph - N/A   Partly Cloudy
2:00 AM 44.6 °F 38.8 °F 30.2 °F 57% 30.06 in 15.0 mi WSW 11.5 mph - N/A   Clear
3:00 AM 44 °F - 32 °F 50% 30.06 in 15 mi WSW 10.4 mph - -  
3:00 AM 44.6 °F 39.2 °F 32.0 °F 61% 30.06 in 15.0 mi WSW 10.4 mph - N/A   Clear
4:00 AM 42.8 °F 37.0 °F 33.8 °F 70% 30.06 in 15.0 mi WSW 10.4 mph - N/A   Clear
5:00 AM 41.0 °F 34.3 °F 32.0 °F 70% 30.06 in 15.0 mi SW 11.5 mph - N/A   Partly Cloudy
6:00 AM 42.8 °F 36.6 °F 32.0 °F 66% 30.06 in 15.0 mi SW 11.5 mph - N/A   Partly Cloudy
7:00 AM 44.6 °F 37.4 °F 33.8 °F 66% 30.06 in 15.0 mi SW 16.1 mph 23.0 mph N/A   Mostly Cloudy
8:00 AM 48.2 °F - 33.8 °F 58% 30.05 in 15.0 mi SW 17.3 mph 24.2 mph N/A   Mostly Cloudy
9:00 AM 50 °F - 33 °F 40% 30.04 in 15 mi SW 13.8 mph - -   Mostly Cloudy
9:00 AM 50.0 °F - 32.0 °F 50% 30.03 in 15.0 mi SW 11.5 mph 20.7 mph N/A   Mostly Cloudy
10:00 AM 53.6 °F - 33.8 °F 47% 30.00 in 15.0 mi SSW 17.3 mph 26.5 mph N/A   Overcast
11:00 AM 51.8 °F - 35.6 °F 54% 30.00 in 15.0 mi SW 21.9 mph 31.1 mph N/A   Overcast
12:00 PM 53.6 °F - 39.2 °F 58% 29.98 in 15.0 mi SW 20.7 mph 29.9 mph N/A   Mostly Cloudy
1:00 PM 57.2 °F - 39.2 °F 51% 29.94 in 15.0 mi SSW 21.9 mph 34.5 mph N/A   Mostly Cloudy
2:00 PM 62.6 °F - 41.0 °F 45% 29.92 in 15.0 mi SW 16.1 mph 34.5 mph N/A   Mostly Cloudy
3:00 PM 64 °F - 41 °F 31% 29.93 in 15 mi WSW 16.1 mph - -   Scattered Clouds
3:00 PM 64.4 °F - 41.0 °F 42% 29.92 in 15.0 mi WSW 19.6 mph 27.6 mph N/A   Mostly Cloudy
4:00 PM 66.2 °F - 41.0 °F 40% 29.93 in 15.0 mi SW 16.1 mph 24.2 mph N/A   Mostly Cloudy
5:00 PM 66.2 °F - 42.8 °F 43% 29.93 in 15.0 mi SW 13.8 mph 20.7 mph N/A   Mostly Cloudy
6:00 PM 66.2 °F - 42.8 °F 43% 29.93 in 15.0 mi SW 15.0 mph 24.2 mph N/A   Mostly Cloudy
7:00 PM 64.4 °F - 44.6 °F 49% 29.93 in 15.0 mi SW 9.2 mph - N/A   Overcast
8:00 PM 60.8 °F - 44.6 °F 55% 29.95 in 15.0 mi SW 10.4 mph - N/A   Overcast
9:00 PM 59 °F - 43 °F 44% 29.96 in 15 mi SW 6.9 mph - -  
9:00 PM 59.0 °F - 42.8 °F 55% 29.96 in 15.0 mi SW 5.8 mph - N/A   Mostly Cloudy
10:00 PM 57.2 °F - 42.8 °F 59% 29.99 in 15.0 mi West 5.8 mph - N/A   Mostly Cloudy
11:00 PM 55.4 °F - 42.8 °F 63% 30.00 in 15.0 mi SW 8.1 mph - N/A   Overcast